This is the latest recevied weather packets stored in our database for station/object KG5MMT-15. If no packets are shown the sender has not sent any weather packets the latest 10 day(s).
| Time | Temp. | Humidity | Pressure | Rain* | Wind** | Luminosity | Snow |
|---|---|---|---|---|---|---|---|
| 1787867881 | 21.67° C | 54% | 0 hPa | 0 mm | - | - | - |
| 1787867581 | 22.22° C | 48% | 0 hPa | 0 mm | - | - | - |
| 1787867281 | 22.78° C | 50% | 0 hPa | 0 mm | - | - | - |
| 1787866981 | 22.78° C | 50% | 0 hPa | 0 mm | - | - | - |
| 1787866681 | 22.78° C | 55% | 0 hPa | 0 mm | - | - | - |
| 1787866381 | 22.22° C | 55% | 0 hPa | 0 mm | - | - | - |
| 1787866081 | 21.67° C | 60% | 0 hPa | 0 mm | - | - | - |
| 1787865781 | 21.11° C | 66% | 0 hPa | 0 mm | - | - | - |
| 1787865481 | 21.11° C | 70% | 0 hPa | 0 mm | - | - | - |
| 1787865181 | 20.56° C | 72% | 0 hPa | 0 mm | - | - | - |
| 1787864881 | 20.56° C | 72% | 0 hPa | 0 mm | - | - | - |
| 1787864581 | 20.56° C | 67% | 0 hPa | 0 mm | - | - | - |
| 1787864281 | 20° C | 59% | 0 hPa | 0 mm | - | - | - |
| 1787863981 | 20° C | 65% | 0 hPa | 0 mm | - | - | - |
| 1787863681 | 20.56° C | 61% | 0 hPa | 0 mm | - | - | - |
| 1787863381 | 20.56° C | 58% | 0 hPa | 0 mm | - | - | - |
| 1787863082 | 20.56° C | 57% | 0 hPa | 0 mm | - | - | - |
| 1787862782 | 20° C | 52% | 0 hPa | 0 mm | - | - | - |
| 1787862481 | 18.89° C | 72% | 0 hPa | 0 mm | - | - | - |
| 1787862182 | 18.33° C | 78% | 0 hPa | 0 mm | - | - | - |
| 1787861881 | 17.78° C | 81% | 0 hPa | 0 mm | - | - | - |
| 1787861581 | 17.78° C | 84% | 0 hPa | 0 mm | - | - | - |
| 1787861282 | 17.78° C | 83% | 0 hPa | 0.25 mm | - | - | - |
| 1787860982 | 17.22° C | 84% | 0 hPa | 1.02 mm | - | - | - |
| 1787860682 | 17.22° C | 83% | 0 hPa | 1.02 mm | - | - | - |
* Rain latest hour (hover to see other rain measurements)
** Current wind speed in m/s (hover to see current wind gust speed)